Regional Weather Roundup
Issued by NWS

Home | Current Version | Previous Version | Text Only | Print | Product List | Glossary On
Versions: 1 2 3 4 5 6 7 8 9 10 11 12 13 14 15 16 17 18 19 20 21 22 23 24 25 26 27 28 29 30 31 32 33 34 35 36 37 38 39 40 41 42 43 44 45 46 47 48 49 50
000
ASUS46 KSTO 182109
RWRCA

NORTHERN AND CENTRAL CA REGIONAL WEATHER ROUNDUP
NATIONAL WEATHER SERVICE SACRAMENTO CA
100 PM PST THU DEC 18 2014

NOTE: FAIR INDICATES FEW OR NO CLOUDS BELOW 12,000 FEET WITH NO
SIGNIFICANT WEATHER AND/OR OBSTRUCTIONS TO VISIBILITY.

CAZ001-003-182200-
NORTHWEST AREA

CITY           SKY/WX    TMP DP  RH WIND       PRES   REMARKS
CRESCENT CITY  CLOUDY    57  47  69 S16       29.98F
ARCATA         NOT AVBL
SHELTER COVE   NOT AVBL
UKIAH          CLOUDY    55  49  80 VRB7      30.12F
$$

CAZ006-505>513-182200-
BAY AREA

CITY           SKY/WX    TMP DP  RH WIND       PRES   REMARKS
SANTA ROSA     CLOUDY    55  52  89 CALM      30.13F
SAN RAFAEL     N/A       58  MM  MM MISG
NAPA           CLOUDY    55  51  86 E10       30.16F
CONCORD        CLOUDY    58  50  75 NE5       30.16F FOG
OAKLAND CITY   N/A       59  MM  MM MISG
OAKLAND        PTSUNNY   59  51  75 E5        30.15F
SAN FRAN CITY  N/A       58  MM  74 MISG
SAN FRAN ARPT  PTSUNNY   58  53  84 E3        30.15F
LIVERMORE      CLOUDY    57  52  82 NE10      30.14F
HAYWARD        CLOUDY    61  51  70 CALM      30.14F
REDWOOD CITY   N/A       MM  MM  MM MISG
MOFFETT ARPT   FAIR      62  49  62 SE5       30.14F
SAN JOSE ARPT  PTSUNNY   60  48  64 SE5       30.14F
$$
CAZ034-037-514>518-182200-
CENTRAL COAST

CITY           SKY/WX    TMP DP  RH WIND       PRES   REMARKS
WATSONVILLE    LGT RAIN  57  53  86 CALM      30.17F FOG
SALINAS        CLOUDY    59  50  72 E7        30.16F
MONTEREY       CLOUDY    60  51  72 CALM      30.16F
PT PIEDRAS BLS NOT AVBL
SAN LUIS OBISP CLOUDY    60  51  72 SE5       30.15F
SANTA MARIA    PTSUNNY   63  50  62 NW3       30.15F
$$
CAZ015-016-182200-
NORTHERN SACRAMENTO VALLEY

CITY           SKY/WX    TMP DP  RH WIND       PRES   REMARKS
REDDING        CLOUDY    51  49  92 S12       30.15F
RED BLUFF      CLOUDY    52  49  89 SE9       30.16F
OROVILLE       CLOUDY    57  45  64 S7        30.18F
$$
CAZ016>018-182200-
SOUTHERN SACRAMENTO VALLEY

CITY           SKY/WX    TMP DP  RH WIND       PRES   REMARKS
AUBURN         FAIR      54  41  62 S6        30.17F
BEALE AFB      MOSUNNY   58  46  63 S6        30.16F
LINCOLN        FAIR      59  43  55 SE6       30.16F
MARYSVILLE     CLOUDY    58  48  69 S7        30.18F
SAC INTL ARPT  PTSUNNY   59  47  64 SE8       30.16F
MATHER AIRPORT PTSUNNY   57  50  77 S6          N/A
DOWNTOWN SAC   N/A       59  MM  MM MISG
SAC EXEC ARPT  FAIR      60  47  61 S6        30.16F
VACAVILLE      CLOUDY    54  48  80 CALM      30.18F
TRAVIS AFB     CLOUDY    54  48  80 NE3       30.15F
$$
CAZ019>021-182200-
SAN JOAQUIN VALLEY

CITY           SKY/WX    TMP DP  RH WIND       PRES   REMARKS
STOCKTON       FAIR      60  49  66 S7        30.16F
MODESTO        FAIR      59  46  62 SE8       30.17F
MERCED         FAIR      60  46  59 S7        30.17F
LEMOORE        PTSUNNY   58  47  66 VRB6      30.18F
FRESNO         PTSUNNY   58  44  60 CALM      30.18F
HANFORD        FAIR      58  44  60 SW3       30.18F
PORTERVILLE    FAIR      61  39  44 CALM      30.16F
BAKERSFIELD    FAIR      62  37  39 NW3       30.14F
$$
CAZ011-012-071-182200-
NORTHERN MOUNTAINS

CITY           SKY/WX    TMP DP  RH WIND       PRES   REMARKS
YREKA          PTSUNNY   50  38  63 S15       30.04F
MOUNT SHASTA   CLOUDY    43  38  82 VRB5      30.10F
ALTURAS        PTSUNNY   43  33  68 S7        30.09F
$$
CAZ011-012-071-182200-
SIERRA NEVADA MTNS

CITY           SKY/WX    TMP DP  RH WIND       PRES   REMARKS
BLUE CANYON    PTSUNNY   39  32  76 SE6       30.15F WCI  35
TRUCKEE        MOSUNNY   41  30  65 NW6       30.13S
TAHOE VLY ARPT FAIR      44  24  45 S9        30.11F
MAMMOTH LAKES  FAIR      36  21  55 SE5       30.14S WCI  32
$$



USA.gov is the U.S. government's official web portal to all federal, state and local government web resources and services.